{"data":{"norad_id":51874,"intl_designator":"2022-022Y","name":"STARLINK-3574","alt_names":[],"object_type":"PAYLOAD","status":"ACTIVE","operator":null,"country":"US","launch_date":"2022-03-03","launch_site_code":"AFETR","launch_vehicle":null,"mission":null,"orbit_class":"UNKNOWN","rcs_meters":null,"size_class":null,"mass_kg":null,"dimensions":null,"purposes":["comms"],"wikipedia_slug":null,"has_3d_model":false,"image_url":null,"decayed_at":null,"tle_current":{"epoch":"2026-09-20T02:41:09.671136Z","epoch_age_seconds":85422,"freshness":"FRESH","line1":"1 51874U 22022Y   26263.11191749 -.00001319  00000+0 -26907-4 0  9998","line2":"2 51874  53.1576 205.3638 0001057  72.9579 287.1540 15.35397266252602","mean_motion":15.35397266,"eccentricity":0.0001057,"inclination_deg":53.1576,"raan_deg":205.3638,"arg_perigee_deg":72.9579,"mean_anomaly_deg":287.154,"bstar":-2.6907e-5,"rev_number":25260,"period_min":93.786802405313,"perigee_km":459.01799627924,"apogee_km":460.4635236377,"semimajor_km":6837.8777599585,"source":"CELESTRAK","updated_at":"2026-09-20T09:00:39.949074Z"}}}